Year,Month,Day,Hour,Minute,Value (Times are PST for temperature in C)
2009,07,02,00,00,20.00
2009,07,02,00,01,20.00
2009,07,02,00,02,20.00
2009,07,02,00,03,20.00
2009,07,02,00,04,20.00
2009,07,02,00,05,20.00
2009,07,02,00,06,20.00
2009,07,02,00,07,20.00
2009,07,02,00,08,19.90
2009,07,02,00,09,19.90
2009,07,02,00,10,19.90
2009,07,02,00,11,19.90
2009,07,02,00,12,19.90
2009,07,02,00,13,19.80
2009,07,02,00,14,19.80
2009,07,02,00,15,19.90
2009,07,02,00,16,19.90
2009,07,02,00,17,19.90
2009,07,02,00,18,19.90
2009,07,02,00,19,19.90
2009,07,02,00,20,19.90
2009,07,02,00,21,19.90
2009,07,02,00,22,19.90
2009,07,02,00,23,19.90
2009,07,02,00,24,19.90
2009,07,02,00,25,19.80
2009,07,02,00,26,19.80
2009,07,02,00,27,19.80
2009,07,02,00,28,19.80
2009,07,02,00,29,19.80
2009,07,02,00,30,19.80
2009,07,02,00,31,19.80
2009,07,02,00,32,19.70
2009,07,02,00,33,19.70
2009,07,02,00,34,19.80
2009,07,02,00,35,19.80
2009,07,02,00,36,19.80
2009,07,02,00,37,19.80
2009,07,02,00,38,19.80
2009,07,02,00,39,19.80
2009,07,02,00,40,19.80
2009,07,02,00,41,19.80
2009,07,02,00,42,19.80
2009,07,02,00,43,19.80
2009,07,02,00,44,19.80
2009,07,02,00,45,19.80
2009,07,02,00,46,19.80
2009,07,02,00,47,19.80
2009,07,02,00,48,19.80
2009,07,02,00,49,19.80
2009,07,02,00,50,19.80
2009,07,02,00,51,19.70
2009,07,02,00,52,19.70
2009,07,02,00,53,19.70
2009,07,02,00,54,19.70
2009,07,02,00,55,19.70
2009,07,02,00,56,19.70
2009,07,02,00,57,19.60
2009,07,02,00,58,19.60
2009,07,02,00,59,19.60
2009,07,02,01,00,19.60
2009,07,02,01,01,19.60
2009,07,02,01,02,19.60
2009,07,02,01,03,19.60
2009,07,02,01,04,19.60
2009,07,02,01,05,19.60
2009,07,02,01,06,19.60
2009,07,02,01,07,19.60
2009,07,02,01,08,19.50
2009,07,02,01,09,19.50
2009,07,02,01,10,19.50
2009,07,02,01,11,19.50
2009,07,02,01,12,19.40
2009,07,02,01,13,19.40
2009,07,02,01,14,19.40
2009,07,02,01,15,19.40
2009,07,02,01,16,19.40
2009,07,02,01,17,19.40
2009,07,02,01,18,19.40
2009,07,02,01,19,19.40
2009,07,02,01,20,19.50
2009,07,02,01,21,19.50
2009,07,02,01,22,19.50
2009,07,02,01,23,19.50
2009,07,02,01,24,19.40
2009,07,02,01,25,19.40
2009,07,02,01,26,19.40
2009,07,02,01,27,19.40
2009,07,02,01,28,19.50
2009,07,02,01,29,19.50
2009,07,02,01,30,19.50
2009,07,02,01,31,19.50
2009,07,02,01,32,19.50
2009,07,02,01,33,19.40
2009,07,02,01,34,19.40
2009,07,02,01,35,19.40
2009,07,02,01,36,19.40
2009,07,02,01,37,19.30
2009,07,02,01,38,19.30
2009,07,02,01,39,19.30
2009,07,02,01,40,19.30
2009,07,02,01,41,19.30
2009,07,02,01,42,19.20
2009,07,02,01,43,19.20
2009,07,02,01,44,19.20
2009,07,02,01,45,19.10
2009,07,02,01,46,19.10
2009,07,02,01,47,19.10
2009,07,02,01,48,19.10
2009,07,02,01,49,19.10
2009,07,02,01,50,19.10
2009,07,02,01,51,19.10
2009,07,02,01,52,19.00
2009,07,02,01,53,19.00
2009,07,02,01,54,19.00
2009,07,02,01,55,18.90
2009,07,02,01,56,18.90
2009,07,02,01,57,18.90
2009,07,02,01,58,18.90
2009,07,02,01,59,18.90
2009,07,02,02,00,18.90
2009,07,02,02,01,18.90
2009,07,02,02,02,18.90
2009,07,02,02,03,18.90
2009,07,02,02,04,18.80
2009,07,02,02,05,18.80
2009,07,02,02,06,18.80
2009,07,02,02,07,18.80
2009,07,02,02,08,18.70
2009,07,02,02,09,18.70
2009,07,02,02,10,18.70
2009,07,02,02,11,18.60
2009,07,02,02,12,18.60
2009,07,02,02,13,18.60
2009,07,02,02,14,18.60
2009,07,02,02,15,18.50
2009,07,02,02,16,18.50
2009,07,02,02,17,18.40
2009,07,02,02,18,18.40
2009,07,02,02,19,18.40
2009,07,02,02,20,18.40
2009,07,02,02,21,18.40
2009,07,02,02,22,18.30
2009,07,02,02,23,18.30
2009,07,02,02,24,18.30
2009,07,02,02,25,18.30
2009,07,02,02,26,18.30
2009,07,02,02,27,18.30
2009,07,02,02,28,18.30
2009,07,02,02,29,18.20
2009,07,02,02,30,18.20
2009,07,02,02,31,18.20
2009,07,02,02,32,18.20
2009,07,02,02,33,18.20
2009,07,02,02,34,18.20
2009,07,02,02,35,18.20
2009,07,02,02,36,18.20
2009,07,02,02,37,18.20
2009,07,02,02,38,18.20
2009,07,02,02,39,18.20
2009,07,02,02,40,18.10
2009,07,02,02,41,18.10
2009,07,02,02,42,18.10
2009,07,02,02,43,18.10
2009,07,02,02,44,18.10
2009,07,02,02,45,18.10
2009,07,02,02,46,18.10
2009,07,02,02,47,18.10
2009,07,02,02,48,18.00
2009,07,02,02,49,17.90
2009,07,02,02,50,17.90
2009,07,02,02,51,17.90
2009,07,02,02,52,17.80
2009,07,02,02,53,17.70
2009,07,02,02,54,17.60
2009,07,02,02,55,17.50
2009,07,02,02,56,17.40
2009,07,02,02,57,17.40
2009,07,02,02,58,17.30
2009,07,02,02,59,17.30
2009,07,02,03,00,17.30
2009,07,02,03,01,17.20
2009,07,02,03,02,17.20
2009,07,02,03,03,17.20
2009,07,02,03,04,17.20
2009,07,02,03,05,17.20
2009,07,02,03,06,17.20
2009,07,02,03,07,17.20
2009,07,02,03,08,17.20
2009,07,02,03,09,17.10
2009,07,02,03,10,17.10
2009,07,02,03,11,17.10
2009,07,02,03,12,17.10
2009,07,02,03,13,17.10
2009,07,02,03,14,17.10
2009,07,02,03,15,17.10
2009,07,02,03,16,17.10
2009,07,02,03,17,17.00
2009,07,02,03,18,17.00
2009,07,02,03,19,16.90
2009,07,02,03,20,17.00
2009,07,02,03,21,17.00
2009,07,02,03,22,17.10
2009,07,02,03,23,17.10
2009,07,02,03,24,17.00
2009,07,02,03,25,17.00
2009,07,02,03,26,17.00
2009,07,02,03,27,16.90
2009,07,02,03,28,16.90
2009,07,02,03,29,17.00
2009,07,02,03,30,17.00
2009,07,02,03,31,17.10
2009,07,02,03,32,17.10
2009,07,02,03,33,17.10
2009,07,02,03,34,17.10
2009,07,02,03,35,17.10
2009,07,02,03,36,17.10
2009,07,02,03,37,17.10
2009,07,02,03,38,17.10
2009,07,02,03,39,17.10
2009,07,02,03,40,17.00
2009,07,02,03,41,17.00
2009,07,02,03,42,17.10
2009,07,02,03,43,17.10
2009,07,02,03,44,17.10
2009,07,02,03,45,17.10
2009,07,02,03,46,17.10
2009,07,02,03,47,17.10
2009,07,02,03,48,17.10
2009,07,02,03,49,17.10
2009,07,02,03,50,17.10
2009,07,02,03,51,17.10
2009,07,02,03,52,17.00
2009,07,02,03,53,17.00
2009,07,02,03,54,17.00
2009,07,02,03,55,16.90
2009,07,02,03,56,16.90
2009,07,02,03,57,16.90
2009,07,02,03,58,16.90
2009,07,02,03,59,16.90
2009,07,02,04,00,16.90
2009,07,02,04,01,16.90
2009,07,02,04,02,16.80
2009,07,02,04,03,16.80
2009,07,02,04,04,16.80
2009,07,02,04,05,16.80
2009,07,02,04,06,16.90
2009,07,02,04,09,16.90
2009,07,02,04,10,16.90
2009,07,02,04,12,16.90
2009,07,02,04,15,16.90
2009,07,02,04,18,16.90
2009,07,02,04,19,16.90
2009,07,02,04,21,16.90
2009,07,02,04,23,16.90
2009,07,02,04,24,16.90
2009,07,02,04,25,16.90
2009,07,02,04,26,16.90
2009,07,02,04,27,16.90
2009,07,02,04,28,16.90
2009,07,02,04,29,16.90
2009,07,02,04,30,16.90
2009,07,02,04,31,16.90
2009,07,02,04,32,16.80
2009,07,02,04,33,16.80
2009,07,02,04,34,16.80
2009,07,02,04,35,16.80
2009,07,02,04,36,16.80
2009,07,02,04,37,16.80
2009,07,02,04,38,16.70
2009,07,02,04,39,16.70
2009,07,02,04,40,16.70
2009,07,02,04,41,16.70
2009,07,02,04,42,16.70
2009,07,02,04,43,16.70
2009,07,02,04,44,16.70
2009,07,02,04,45,16.70
2009,07,02,04,46,16.70
2009,07,02,04,47,16.60
2009,07,02,04,48,16.60
2009,07,02,04,49,16.60
2009,07,02,04,50,16.60
2009,07,02,04,51,16.60
2009,07,02,04,52,16.60
2009,07,02,04,53,16.50
2009,07,02,04,54,16.50
2009,07,02,04,55,16.50
2009,07,02,04,56,16.40
2009,07,02,04,57,16.50
2009,07,02,04,58,16.40
2009,07,02,04,59,16.40
2009,07,02,05,00,16.40
2009,07,02,05,01,16.40
2009,07,02,05,02,16.40
2009,07,02,05,03,16.40
2009,07,02,05,04,16.40
2009,07,02,05,05,16.40
2009,07,02,05,06,16.40
2009,07,02,05,07,16.30
2009,07,02,05,08,16.30
2009,07,02,05,09,16.30
2009,07,02,05,10,16.30
2009,07,02,05,11,16.30
2009,07,02,05,12,16.30
2009,07,02,05,13,16.30
2009,07,02,05,14,16.20
2009,07,02,05,15,16.20
2009,07,02,05,16,16.20
2009,07,02,05,17,16.20
2009,07,02,05,18,16.20
2009,07,02,05,19,16.20
2009,07,02,05,20,16.10
2009,07,02,05,21,16.10
2009,07,02,05,22,16.10
2009,07,02,05,23,16.20
2009,07,02,05,24,16.20
2009,07,02,05,25,16.20
2009,07,02,05,26,16.10
2009,07,02,05,27,16.10
2009,07,02,05,28,16.10
2009,07,02,05,29,16.00
2009,07,02,05,30,16.00
2009,07,02,05,31,15.90
2009,07,02,05,32,15.90
2009,07,02,05,33,15.80
2009,07,02,05,34,15.80
2009,07,02,05,35,15.80
2009,07,02,05,36,15.80
2009,07,02,05,37,15.70
2009,07,02,05,38,15.70
2009,07,02,05,39,15.70
2009,07,02,05,40,15.70
2009,07,02,05,41,15.70
2009,07,02,05,42,15.70
2009,07,02,05,43,15.70
2009,07,02,05,44,15.80
2009,07,02,05,45,15.80
2009,07,02,05,46,15.80
2009,07,02,05,47,15.80
2009,07,02,05,48,15.80
2009,07,02,05,49,15.90
2009,07,02,05,50,15.90
2009,07,02,05,51,15.90
2009,07,02,05,52,16.00
2009,07,02,05,53,16.00
2009,07,02,05,54,16.00
2009,07,02,05,55,16.10
2009,07,02,05,56,16.10
2009,07,02,05,57,16.10
2009,07,02,05,58,16.10
2009,07,02,05,59,16.10
2009,07,02,06,00,16.20
2009,07,02,06,01,16.20
2009,07,02,06,02,16.20
2009,07,02,06,03,16.20
2009,07,02,06,04,16.20
2009,07,02,06,05,16.20
2009,07,02,06,06,16.20
2009,07,02,06,07,16.20
2009,07,02,06,08,16.20
2009,07,02,06,09,16.20
2009,07,02,06,10,16.20
2009,07,02,06,11,16.20
2009,07,02,06,12,16.20
2009,07,02,06,13,16.20
2009,07,02,06,14,16.20
2009,07,02,06,15,16.20
2009,07,02,06,16,16.20
2009,07,02,06,17,16.20
2009,07,02,06,18,16.20
2009,07,02,06,19,16.20
2009,07,02,06,20,16.20
2009,07,02,06,21,16.20
2009,07,02,06,22,16.20
2009,07,02,06,23,16.30
2009,07,02,06,24,16.30
2009,07,02,06,25,16.30
2009,07,02,06,26,16.30
2009,07,02,06,27,16.30
2009,07,02,06,28,16.30
2009,07,02,06,29,16.30
2009,07,02,06,30,16.30
2009,07,02,06,31,16.30
2009,07,02,06,32,16.30
2009,07,02,06,33,16.30
2009,07,02,06,34,16.30
2009,07,02,06,35,16.30
2009,07,02,06,36,16.40
2009,07,02,06,37,16.40
2009,07,02,06,38,16.40
2009,07,02,06,39,16.40
2009,07,02,06,40,16.40
2009,07,02,06,41,16.40
2009,07,02,06,42,16.40
2009,07,02,06,43,16.40
2009,07,02,06,44,16.40
2009,07,02,06,45,16.40
2009,07,02,06,46,16.40
2009,07,02,06,47,16.50
2009,07,02,06,48,16.50
2009,07,02,06,49,16.50
2009,07,02,06,50,16.50
2009,07,02,06,51,16.50
2009,07,02,06,52,16.50
2009,07,02,06,53,16.60
2009,07,02,06,54,16.60
2009,07,02,06,55,16.60
2009,07,02,06,56,16.70
2009,07,02,06,57,16.70
2009,07,02,06,58,16.70
2009,07,02,06,59,16.70
2009,07,02,07,00,16.80
2009,07,02,07,01,16.80
2009,07,02,07,02,16.80
2009,07,02,07,03,16.80
2009,07,02,07,04,16.80
2009,07,02,07,05,16.90
2009,07,02,07,06,16.90
2009,07,02,07,07,16.90
2009,07,02,07,08,16.90
2009,07,02,07,09,17.00
2009,07,02,07,10,17.00
2009,07,02,07,11,17.00
2009,07,02,07,12,17.00
2009,07,02,07,13,17.10
2009,07,02,07,14,17.10
2009,07,02,07,15,17.10
2009,07,02,07,16,17.10
2009,07,02,07,17,17.10
2009,07,02,07,18,17.20
2009,07,02,07,19,17.20
2009,07,02,07,20,17.20
2009,07,02,07,21,17.20
2009,07,02,07,22,17.20
2009,07,02,07,23,17.20
2009,07,02,07,24,17.20
2009,07,02,07,25,17.30
2009,07,02,07,26,17.30
2009,07,02,07,27,17.30
2009,07,02,07,28,17.30
2009,07,02,07,29,17.30
2009,07,02,07,30,17.30
2009,07,02,07,31,17.30
2009,07,02,07,32,17.40
2009,07,02,07,33,17.40
2009,07,02,07,34,17.40
2009,07,02,07,35,17.40
2009,07,02,07,36,17.50
2009,07,02,07,37,17.50
2009,07,02,07,38,17.50
2009,07,02,07,39,17.60
2009,07,02,07,40,17.60
2009,07,02,07,41,17.60
2009,07,02,07,42,17.60
2009,07,02,07,43,17.70
2009,07,02,07,44,17.70
2009,07,02,07,45,17.70
2009,07,02,07,46,17.70
2009,07,02,07,47,17.70
2009,07,02,07,48,17.70
2009,07,02,07,49,17.70
2009,07,02,07,50,17.70
2009,07,02,07,51,17.70
2009,07,02,07,52,17.70
2009,07,02,07,53,17.70
2009,07,02,07,54,17.70
2009,07,02,07,55,17.60
2009,07,02,07,56,17.60
2009,07,02,07,57,17.60
2009,07,02,07,58,17.60
2009,07,02,07,59,17.60
2009,07,02,08,00,17.60
2009,07,02,08,01,17.70
2009,07,02,08,02,17.70
2009,07,02,08,03,17.70
2009,07,02,08,04,17.70
2009,07,02,08,05,17.70
2009,07,02,08,06,17.70
2009,07,02,08,07,17.70
2009,07,02,08,08,17.70
2009,07,02,08,09,17.70
2009,07,02,08,10,17.70
2009,07,02,08,11,17.70
2009,07,02,08,12,17.70
2009,07,02,08,13,17.80
2009,07,02,08,14,17.80
2009,07,02,08,15,17.80
2009,07,02,08,16,17.80
2009,07,02,08,17,17.80
2009,07,02,08,18,17.90
2009,07,02,08,19,17.90
2009,07,02,08,20,17.90
2009,07,02,08,21,17.90
2009,07,02,08,22,17.90
2009,07,02,08,23,17.90
2009,07,02,08,24,18.00
2009,07,02,08,25,18.00
2009,07,02,08,26,18.10
2009,07,02,08,27,18.20
2009,07,02,08,28,18.20
2009,07,02,08,29,18.20
2009,07,02,08,30,18.20
2009,07,02,08,31,18.20
2009,07,02,08,32,18.20
2009,07,02,08,33,18.30
2009,07,02,08,34,18.30
2009,07,02,08,35,18.30
2009,07,02,08,36,18.30
2009,07,02,08,37,18.30
2009,07,02,08,38,18.40
2009,07,02,08,39,18.50
2009,07,02,08,40,18.50
2009,07,02,08,41,18.60
2009,07,02,08,42,18.60
2009,07,02,08,43,18.60
2009,07,02,08,44,18.60
2009,07,02,08,45,18.60
2009,07,02,08,46,18.60
2009,07,02,08,47,18.60
2009,07,02,08,48,18.60
2009,07,02,08,49,18.60
2009,07,02,08,50,18.60
2009,07,02,08,51,18.60
2009,07,02,08,52,18.70
2009,07,02,08,53,18.70
2009,07,02,08,54,18.70
2009,07,02,08,55,18.80
2009,07,02,08,56,18.80
2009,07,02,08,57,18.80
2009,07,02,08,58,18.80
2009,07,02,08,59,18.90
2009,07,02,09,00,18.90
2009,07,02,09,01,19.00
2009,07,02,09,02,19.10
2009,07,02,09,03,19.10
2009,07,02,09,04,19.20
2009,07,02,09,05,19.20
2009,07,02,09,06,19.20
2009,07,02,09,07,19.30
2009,07,02,09,08,19.30
2009,07,02,09,09,19.40
2009,07,02,09,10,19.40
2009,07,02,09,11,19.40
2009,07,02,09,12,19.40
2009,07,02,09,13,19.40
2009,07,02,09,14,19.40
2009,07,02,09,15,19.40
2009,07,02,09,16,19.40
2009,07,02,09,17,19.40
2009,07,02,09,18,19.40
2009,07,02,09,19,19.40
2009,07,02,09,20,19.40
2009,07,02,09,21,19.40
2009,07,02,09,22,19.40
2009,07,02,09,23,19.40
2009,07,02,09,24,19.50
2009,07,02,09,25,19.60
2009,07,02,09,26,19.60
2009,07,02,09,27,19.70
2009,07,02,09,28,19.70
2009,07,02,09,29,19.70
2009,07,02,09,30,19.70
2009,07,02,09,31,19.80
2009,07,02,09,32,19.80
2009,07,02,09,33,19.80
2009,07,02,09,34,19.80
2009,07,02,09,35,19.90
2009,07,02,09,36,19.90
2009,07,02,09,37,20.00
2009,07,02,09,38,20.00
2009,07,02,09,39,20.00
2009,07,02,09,40,20.00
2009,07,02,09,41,20.00
2009,07,02,09,42,20.00
2009,07,02,09,43,20.00
2009,07,02,09,44,20.00
2009,07,02,09,45,20.00
2009,07,02,09,46,20.10
2009,07,02,09,47,20.10
2009,07,02,09,48,20.10
2009,07,02,09,49,20.10
2009,07,02,09,50,20.20
2009,07,02,09,51,20.20
2009,07,02,09,52,20.30
2009,07,02,09,53,20.30
2009,07,02,09,54,20.40
2009,07,02,09,55,20.50
2009,07,02,09,56,20.60
2009,07,02,09,57,20.60
2009,07,02,09,58,20.60
2009,07,02,09,59,20.60
2009,07,02,10,00,20.60
2009,07,02,10,01,20.60
2009,07,02,10,02,20.60
2009,07,02,10,03,20.60
2009,07,02,10,04,20.60
2009,07,02,10,05,20.60
2009,07,02,10,06,20.60
2009,07,02,10,07,20.60
2009,07,02,10,08,20.70
2009,07,02,10,09,20.70
2009,07,02,10,10,20.70
2009,07,02,10,11,20.70
2009,07,02,10,12,20.80
2009,07,02,10,13,20.70
2009,07,02,10,14,20.70
2009,07,02,10,15,20.70
2009,07,02,10,16,20.70
2009,07,02,10,17,20.70
2009,07,02,10,18,20.70
2009,07,02,10,19,20.80
2009,07,02,10,20,20.90
2009,07,02,10,21,21.00
2009,07,02,10,22,21.00
2009,07,02,10,23,21.10
2009,07,02,10,24,21.10
2009,07,02,10,25,21.10
2009,07,02,10,26,21.20
2009,07,02,10,27,21.20
2009,07,02,10,28,21.20
2009,07,02,10,29,21.20
2009,07,02,10,30,21.30
2009,07,02,10,31,21.30
2009,07,02,10,32,21.40
2009,07,02,10,33,21.50
2009,07,02,10,34,21.60
2009,07,02,10,35,21.70
2009,07,02,10,36,21.80
2009,07,02,10,37,21.80
2009,07,02,10,38,21.80
2009,07,02,10,39,21.80
2009,07,02,10,40,21.90
2009,07,02,10,41,21.90
2009,07,02,10,42,21.90
2009,07,02,10,43,22.00
2009,07,02,10,44,22.10
2009,07,02,10,45,22.00
2009,07,02,10,46,22.00
2009,07,02,10,47,22.00
2009,07,02,10,48,22.00
2009,07,02,10,49,22.00
2009,07,02,10,50,21.90
2009,07,02,10,51,21.90
2009,07,02,10,52,21.80
2009,07,02,10,53,21.80
2009,07,02,10,54,21.80
2009,07,02,10,55,21.80
2009,07,02,10,56,21.70
2009,07,02,10,57,21.70
2009,07,02,10,58,21.70
2009,07,02,10,59,21.70
2009,07,02,11,00,21.70
2009,07,02,11,01,21.70
2009,07,02,11,02,21.70
2009,07,02,11,03,21.70
2009,07,02,11,04,21.80
2009,07,02,11,05,21.90
2009,07,02,11,06,22.00
2009,07,02,11,07,22.10
2009,07,02,11,08,22.20
2009,07,02,11,09,22.20
2009,07,02,11,10,22.20
2009,07,02,11,11,22.20
2009,07,02,11,12,22.20
2009,07,02,11,13,22.10
2009,07,02,11,14,22.10
2009,07,02,11,15,22.10
2009,07,02,11,16,22.10
2009,07,02,11,17,22.10
2009,07,02,11,18,22.10
2009,07,02,11,19,22.20
2009,07,02,11,20,22.30
2009,07,02,11,21,22.30
2009,07,02,11,22,22.20
2009,07,02,11,23,22.30
2009,07,02,11,24,22.30
2009,07,02,11,25,22.30
2009,07,02,11,26,22.30
2009,07,02,11,27,22.40
2009,07,02,11,28,22.50
2009,07,02,11,29,22.50
2009,07,02,11,30,22.50
2009,07,02,11,31,22.60
2009,07,02,11,32,22.70
2009,07,02,11,33,22.80
2009,07,02,11,34,22.90
2009,07,02,11,35,22.90
2009,07,02,11,36,22.90
2009,07,02,11,37,23.00
2009,07,02,11,38,23.20
2009,07,02,11,39,23.30
2009,07,02,11,40,23.30
2009,07,02,11,41,23.40
2009,07,02,11,42,23.40
2009,07,02,11,43,23.40
2009,07,02,11,44,23.30
2009,07,02,11,45,23.20
2009,07,02,11,46,23.10
2009,07,02,11,47,23.10
2009,07,02,11,48,23.20
2009,07,02,11,49,23.20
2009,07,02,11,50,23.20
2009,07,02,11,51,23.20
2009,07,02,11,52,23.10
2009,07,02,11,53,23.00
2009,07,02,11,54,22.90
2009,07,02,11,55,22.90
2009,07,02,11,56,22.90
2009,07,02,11,57,22.90
2009,07,02,11,58,22.80
2009,07,02,11,59,22.80
2009,07,02,12,00,22.80
2009,07,02,12,01,22.80
2009,07,02,12,02,22.90
2009,07,02,12,03,22.90
2009,07,02,12,04,22.90
2009,07,02,12,05,22.80
2009,07,02,12,06,22.80
2009,07,02,12,07,22.90
2009,07,02,12,08,22.90
2009,07,02,12,09,23.00
2009,07,02,12,10,23.10
2009,07,02,12,11,23.10
2009,07,02,12,12,23.20
2009,07,02,12,13,23.20
2009,07,02,12,14,23.20
2009,07,02,12,15,23.20
2009,07,02,12,16,23.30
2009,07,02,12,17,23.30
2009,07,02,12,18,23.40
2009,07,02,12,19,23.40
2009,07,02,12,20,23.50
2009,07,02,12,21,23.50
2009,07,02,12,22,23.60
2009,07,02,12,23,23.70
2009,07,02,12,24,23.90
2009,07,02,12,25,23.90
2009,07,02,12,26,24.00
2009,07,02,12,27,24.00
2009,07,02,12,28,24.10
2009,07,02,12,29,24.10
2009,07,02,12,30,24.10
2009,07,02,12,31,24.10
2009,07,02,12,32,24.10
2009,07,02,12,33,24.00
2009,07,02,12,34,23.90
2009,07,02,12,35,23.90
2009,07,02,12,36,23.90
2009,07,02,12,37,24.00
2009,07,02,12,38,24.00
2009,07,02,12,39,23.90
2009,07,02,12,40,23.80
2009,07,02,12,41,23.80
2009,07,02,12,42,23.90
2009,07,02,12,43,24.00
2009,07,02,12,44,24.10
2009,07,02,12,45,24.10
2009,07,02,12,46,24.10
2009,07,02,12,47,24.10
2009,07,02,12,48,24.10
2009,07,02,12,49,24.10
2009,07,02,12,50,24.10
2009,07,02,12,51,24.20
2009,07,02,12,52,24.30
2009,07,02,12,53,24.30
2009,07,02,12,54,24.30
2009,07,02,12,55,24.20
2009,07,02,12,56,24.00
2009,07,02,12,57,24.00
2009,07,02,12,58,24.00
2009,07,02,12,59,24.10
2009,07,02,13,00,24.20
2009,07,02,13,01,24.30
2009,07,02,13,02,24.40
2009,07,02,13,03,24.50
2009,07,02,13,04,24.50
2009,07,02,13,05,24.50
2009,07,02,13,06,24.50
2009,07,02,13,07,24.60
2009,07,02,13,08,24.60
2009,07,02,13,09,24.50
2009,07,02,13,10,24.40
2009,07,02,13,11,24.40
2009,07,02,13,12,24.30
2009,07,02,13,13,24.30
2009,07,02,13,14,24.30
2009,07,02,13,15,24.40
2009,07,02,13,16,24.40
2009,07,02,13,17,24.40
2009,07,02,13,18,24.50
2009,07,02,13,19,24.60
2009,07,02,13,20,24.60
2009,07,02,13,21,24.70
2009,07,02,13,22,24.80
2009,07,02,13,23,24.90
2009,07,02,13,24,25.00
2009,07,02,13,25,25.10
2009,07,02,13,26,25.20
2009,07,02,13,27,25.20
2009,07,02,13,28,25.30
2009,07,02,13,29,25.30
2009,07,02,13,30,25.40
2009,07,02,13,31,25.40
2009,07,02,13,32,25.30
2009,07,02,13,33,25.30
2009,07,02,13,34,25.30
2009,07,02,13,35,25.20
2009,07,02,13,36,25.10
2009,07,02,13,37,25.00
2009,07,02,13,38,24.90
2009,07,02,13,39,24.70
2009,07,02,13,40,24.70
2009,07,02,13,41,24.70
2009,07,02,13,42,24.80
2009,07,02,13,43,24.90
2009,07,02,13,44,24.90
2009,07,02,13,45,25.00
2009,07,02,13,46,25.10
2009,07,02,13,47,25.10
2009,07,02,13,48,25.20
2009,07,02,13,49,25.20
2009,07,02,13,50,25.30
2009,07,02,13,51,25.30
2009,07,02,13,52,25.40
2009,07,02,13,53,25.50
2009,07,02,13,54,25.60
2009,07,02,13,55,25.70
2009,07,02,13,56,25.90
2009,07,02,13,57,26.00
2009,07,02,13,58,26.00
2009,07,02,13,59,26.00
2009,07,02,14,00,26.00
2009,07,02,14,01,26.00
2009,07,02,14,02,26.10
2009,07,02,14,03,26.20
2009,07,02,14,04,26.20
2009,07,02,14,05,26.20
2009,07,02,14,06,26.20
2009,07,02,14,07,26.20
2009,07,02,14,08,26.20
2009,07,02,14,09,26.20
2009,07,02,14,10,26.20
2009,07,02,14,11,26.10
2009,07,02,14,12,26.00
2009,07,02,14,13,26.00
2009,07,02,14,14,26.10
2009,07,02,14,15,26.10
2009,07,02,14,16,26.20
2009,07,02,14,17,26.20
2009,07,02,14,18,26.20
2009,07,02,14,19,26.20
2009,07,02,14,20,26.20
2009,07,02,14,21,26.20
2009,07,02,14,22,26.00
2009,07,02,14,23,25.80
2009,07,02,14,24,25.70
2009,07,02,14,25,25.60
2009,07,02,14,26,25.50
2009,07,02,14,27,25.70
2009,07,02,14,28,25.70
2009,07,02,14,29,25.60
2009,07,02,14,30,25.50
2009,07,02,14,31,25.50
2009,07,02,14,32,25.40
2009,07,02,14,33,25.50
2009,07,02,14,34,25.60
2009,07,02,14,35,25.70
2009,07,02,14,36,25.70
2009,07,02,14,37,25.70
2009,07,02,14,38,25.80
2009,07,02,14,39,25.70
2009,07,02,14,40,25.50
2009,07,02,14,41,25.30
2009,07,02,14,42,25.30
2009,07,02,14,43,25.30
2009,07,02,14,44,25.30
2009,07,02,14,45,25.40
2009,07,02,14,46,25.40
2009,07,02,14,47,25.40
2009,07,02,14,48,25.40
2009,07,02,14,49,25.50
2009,07,02,14,50,25.60
2009,07,02,14,51,25.60
2009,07,02,14,52,25.60
2009,07,02,14,53,25.70
2009,07,02,14,54,25.70
2009,07,02,14,55,25.70
2009,07,02,14,56,25.70
2009,07,02,14,57,25.60
2009,07,02,14,58,25.60
2009,07,02,14,59,25.60
2009,07,02,15,00,25.60
2009,07,02,15,01,25.70
2009,07,02,15,02,25.70
2009,07,02,15,03,25.80
2009,07,02,15,04,26.00
2009,07,02,15,05,26.10
2009,07,02,15,06,26.20
2009,07,02,15,07,26.20
2009,07,02,15,08,26.30
2009,07,02,15,09,26.40
2009,07,02,15,10,26.50
2009,07,02,15,11,26.50
2009,07,02,15,12,26.40
2009,07,02,15,13,26.40
2009,07,02,15,14,26.50
2009,07,02,15,15,26.50
2009,07,02,15,16,26.60
2009,07,02,15,17,26.60
2009,07,02,15,18,26.60
2009,07,02,15,19,26.60
2009,07,02,15,20,26.60
2009,07,02,15,21,26.60
2009,07,02,15,22,26.60
2009,07,02,15,23,26.70
2009,07,02,15,24,26.80
2009,07,02,15,25,26.90
2009,07,02,15,26,27.00
2009,07,02,15,27,27.20
2009,07,02,15,28,27.40
2009,07,02,15,29,27.60
2009,07,02,15,30,27.70
2009,07,02,15,31,27.80
2009,07,02,15,32,27.90
2009,07,02,15,33,28.00
2009,07,02,15,34,28.20
2009,07,02,15,35,28.20
2009,07,02,15,36,28.20
2009,07,02,15,37,28.20
2009,07,02,15,38,28.10
2009,07,02,15,39,28.00
2009,07,02,15,40,27.80
2009,07,02,15,41,27.70
2009,07,02,15,42,27.60
2009,07,02,15,43,27.60
2009,07,02,15,44,27.60
2009,07,02,15,45,27.70
2009,07,02,15,46,27.80
2009,07,02,15,47,27.80
2009,07,02,15,48,27.80
2009,07,02,15,49,27.90
2009,07,02,15,50,28.10
2009,07,02,15,51,28.20
2009,07,02,15,52,28.30
2009,07,02,15,53,28.30
2009,07,02,15,54,28.30
2009,07,02,15,55,28.30
2009,07,02,15,56,28.30
2009,07,02,15,57,28.10
2009,07,02,15,58,28.00
2009,07,02,15,59,27.80
2009,07,02,16,00,27.70
2009,07,02,16,01,27.70
2009,07,02,16,02,27.70
2009,07,02,16,03,27.70
2009,07,02,16,04,27.70
2009,07,02,16,05,27.70
2009,07,02,16,06,27.80
2009,07,02,16,07,27.90
2009,07,02,16,08,27.90
2009,07,02,16,09,28.00
2009,07,02,16,10,28.00
2009,07,02,16,11,28.00
2009,07,02,16,12,28.00
2009,07,02,16,13,28.10
2009,07,02,16,14,28.10
2009,07,02,16,15,28.10
2009,07,02,16,16,28.20
2009,07,02,16,17,28.20
2009,07,02,16,18,28.20
2009,07,02,16,19,28.20
2009,07,02,16,20,28.20
2009,07,02,16,21,28.20
2009,07,02,16,22,28.30
2009,07,02,16,23,28.30
2009,07,02,16,24,28.50
2009,07,02,16,25,28.50
2009,07,02,16,26,28.50
2009,07,02,16,27,28.50
2009,07,02,16,28,28.50
2009,07,02,16,29,28.50
2009,07,02,16,30,28.60
2009,07,02,16,31,28.70
2009,07,02,16,32,28.80
2009,07,02,16,33,28.90
2009,07,02,16,34,28.90
2009,07,02,16,35,28.80
2009,07,02,16,36,28.70
2009,07,02,16,37,28.50
2009,07,02,16,38,28.30
2009,07,02,16,39,28.20
2009,07,02,16,40,28.20
2009,07,02,16,41,28.00
2009,07,02,16,42,27.80
2009,07,02,16,43,27.70
2009,07,02,16,44,27.70
2009,07,02,16,45,27.70
2009,07,02,16,46,27.70
2009,07,02,16,47,27.80
2009,07,02,16,48,27.90
2009,07,02,16,49,27.90
2009,07,02,16,50,28.00
2009,07,02,16,51,28.00
2009,07,02,16,52,28.00
2009,07,02,16,53,27.90
2009,07,02,16,54,27.80
2009,07,02,16,55,27.50
2009,07,02,16,56,27.40
2009,07,02,16,57,27.30
2009,07,02,16,58,27.30
2009,07,02,16,59,27.30
2009,07,02,17,00,27.30
2009,07,02,17,01,27.30
2009,07,02,17,02,27.20
2009,07,02,17,03,27.20
2009,07,02,17,04,27.10
2009,07,02,17,05,27.10
2009,07,02,17,06,27.10
2009,07,02,17,07,27.10
2009,07,02,17,08,27.10
2009,07,02,17,09,27.20
2009,07,02,17,10,27.30
2009,07,02,17,11,27.50
2009,07,02,17,12,27.60
2009,07,02,17,13,27.70
2009,07,02,17,14,27.80
2009,07,02,17,15,27.80
2009,07,02,17,16,27.80
2009,07,02,17,17,27.80
2009,07,02,17,18,27.90
2009,07,02,17,19,28.00
2009,07,02,17,20,28.00
2009,07,02,17,21,28.00
2009,07,02,17,22,28.00
2009,07,02,17,23,27.90
2009,07,02,17,24,27.90
2009,07,02,17,25,27.90
2009,07,02,17,26,27.80
2009,07,02,17,27,27.80
2009,07,02,17,28,27.80